Погода в Сретенске

Россия / Забайкальский край     52°14′46″N   117°42′42″E
темп.,
°C
ветер,
м/с
пор.,
м/с
влажн.,
%
обл.,
%
осадки,
мм/ч
давл.,
гПа
погр.,
м
12 мая, ср
ср1200:00+6ссв51274100 0.0 10031015
03:00+6с41363100 0.0 10021138
06:00+6с41160100 0.0 10021031
09:00+9с61044100 0.0 10011428
12:00+13с5828100 0.0 10002275
15:00+15ссз5821100 0.0 9993312
18:00+15ссв4821100 0.0 9992973
21:00+8в225635 0.0 100333
13 мая, чт
чт1300:00+4всв11784 0.0 100511
03:00+2юв11863 0.0 100610
06:00+2ююз22790 0.0 100633
09:00+8з57410 0.0 10051129
12:00+11зюз682362 0.0 10042050
15:00+13зюз6918100 0.0 10032684
18:00+13зюз571893 0.0 10022827
21:00+7ю363754 0.0 1003152
14 мая, пт
пт1400:00+3юз225937 0.0 100537
03:00+1юз117653 0.2 100612
06:00+1зсз11804 0.1 100710
09:00+6зсз226194 0.1 1007944
12:00+7зсз236798 0.1 1007979
15:00+8ссз346090 1.2 10061140
18:00+11ссз254458 1.2 10051820
21:00+6ссз225838 1.2 100724
15 мая, сб
сб1500:00+3з227742 0.0 100912
03:00+1з11865 0.0 101011
06:00+1зюз228989 0.0 101134
09:00+8зсз34506 0.0 1011758
12:00+15зсз46285 0.0 10092071
15:00+17зсз46245 0.0 10082536
18:00+18з57238 0.0 10072852
21:00+11зюз224375 0.0 100814
16 мая, вс
вс1600:00+7вюв11505 0.0 101010
03:00+5ю11560 0.0 101011
06:00+5ю11580 0.0 101118
09:00+14зюз26282 0.0 1009659
12:00+19з691947 0.0 10062142
15:00+21з7101699 0.0 10042757
18:00+20з6112212 0.0 10032747
21:00+16з513367 0.0 1004653